Location: Unspecified
(0.0000°N, 0.0000°E)
Time: 09:54:27
(UTC+00:00)

CZ-3C DEB - Pass Details

Date: 11 March 2026
Orbit: 509 x 34331 km, 19.9° (Epoch: 18 April)

Event Time Altitude Azimuth Distance (km) Brightness Sun altitude
Rises 16:43:42 0° 285° (WNW) 3,547 ? 21.6°
Reaches altitude 10° 16:45:10 10° 284° (WNW) 2,988 ? 21.2°
Maximum altitude 16:52:01 78° 197° (SSW) 2,446 ? 19.5°
Drops below altitude 10° 02:09:25 10° 80° (E) 11,627 ? -60.0°
Sets 02:15:28 0° 78° (ENE) 11,015 ? -58.5°
